Terminal Aerodrome Forecast
Issued by NWS

Home | Current Version | Previous Version | Graphics & Text | Print | Product List | Glossary On
Versions: 1 2 3 4 5 6 7 8 9 10 11 12 13 14
000
FTUS43 KMPX 241625 AAA
TAFRNH
TAF AMD
KRNH 241625Z 2416/2512 29020G30KT P6SM SCT025
     FM250100 31012KT P6SM FEW035 BKN150
     FM250900 01004KT P6SM OVC100=

USA.gov is the U.S. government's official web portal to all federal, state and local government web resources and services.